Wind_Speed
36 39 40 38 29 27 27 27 30 32 35 38 40 43 45 48 50 53 55 57 58 60 61 65 68 68 68 72 73 75 74 76 75
40 38 32 30 28 28 29 31 33 35 38 41 43 46 48 50 53 55 57 60 61 62 66 69 71 70 72 72 74 77 76 76 77
35 31 29 29 30 30 32 34 36 38 41 44 46 49 52 54 57 58 62 63 65 67 70 72 72 72 72 74 75 77 80 78 78
30 30 32 32 33 34 35 38 39 41 44 47 50 53 55 59 61 62 65 66 69 70 71 73 72 72 73 77 78 80 83 80 79
32 32 34 35 37 38 39 41 43 45 47 50 53 56 59 62 64 65 68 70 71 72 73 72 74 74 76 79 82 82 85 82 79
35 36 38 39 40 42 43 44 47 50 52 55 57 59 63 64 66 68 70 71 71 73 72 73 75 77 80 82 84 86 87 84 76
39 40 40 44 44 44 47 49 51 54 57 59 62 64 65 67 69 71 72 73 71 73 74 75 78 81 83 85 86 87 89 85 74
42 43 43 45 46 48 50 52 55 59 61 63 65 68 69 70 71 72 74 73 75 75 76 78 83 84 85 89 90 91 91 84 68
45 46 47 49 50 53 55 57 59 62 64 66 68 71 70 71 73 73 73 75 77 77 80 84 86 88 91 92 92 95 91 77 62
48 50 51 52 54 56 59 61 64 65 65 68 70 71 71 72 74 74 74 77 79 82 86 89 91 93 95 95 98 99 86 73 59
50 53 54 55 58 59 62 64 65 66 69 70 71 71 71 73 75 77 79 83 84 89 91 94 97 97 98 101 104 96 81 69 57
53 55 55 57 60 62 64 64 67 70 71 72 72 71 73 75 78 81 85 88 90 93 97 100 99 101 104 107 103 90 79 67 57
59 59 60 62 65 67 67 68 71 72 73 72 73 71 74 77 82 87 89 92 95 98 102 101 104 107 111 110 97 87 78 72 68
65 66 66 66 69 71 70 72 73 74 75 73 73 76 79 83 87 90 92 97 99 102 103 107 110 115 114 105 95 88 85 79 71
69 70 70 71 72 73 74 75 75 77 76 74 78 81 85 87 90 94 99 100 104 104 109 114 118 119 110 101 94 89 80 74 70
73 74 75 74 74 76 77 78 80 77 78 80 84 86 87 90 94 98 101 104 105 110 116 120 121 113 107 100 92 83 76 69 65
75 76 76 77 78 79 80 79 79 80 86 87 86 85 91 96 97 101 103 105 110 116 120 121 116 110 103 94 84 76 68 64 58
77 78 79 79 78 79 80 81 84 87 87 89 92 93 93 96 101 103 107 111 117 121 121 116 110 107 96 85 76 67 62 61 59
77 78 79 80 80 82 84 84 85 85 89 92 96 98 98 102 99 105 109 115 117 116 112 107 107 97 88 80 72 67 65 64 60
79 79 80 82 82 82 84 86 87 90 92 96 99 101 104 103 107 107 111 116 114 108 108 107 98 89 81 74 71 70 69 64 66
Wind_Direction
277 280 280 284 277 285 286 292 296 298 303 307 312 312 314 316 320 320 322 325 326 328 329 330 330 330 333 333 334 335 336 337 338
272 275 275 274 281 283 286 293 296 301 306 307 310 311 312 315 317 320 322 325 326 328 327 328 329 330 331 331 330 333 334 333 336
266 268 271 278 281 284 289 292 298 303 305 307 307 310 312 314 317 319 322 324 326 326 327 328 329 328 327 327 329 330 332 333 334
265 273 276 280 281 283 288 292 297 300 301 304 307 310 312 314 316 319 322 323 324 326 325 327 326 324 324 324 327 328 330 330 331
276 275 277 280 281 284 288 292 295 298 301 303 307 311 313 315 317 320 321 323 324 323 324 323 322 321 322 325 326 326 328 328 328
276 278 280 280 282 285 288 292 295 298 302 305 308 311 313 315 317 319 321 321 322 322 320 319 318 319 321 323 324 325 325 325 324
268 270 274 279 283 286 290 293 295 298 302 305 309 311 313 316 317 319 319 320 318 317 316 316 317 318 320 322 322 322 323 322 320
273 273 275 278 283 285 290 293 296 300 304 307 310 311 314 315 316 317 317 316 315 314 313 315 316 318 319 320 320 321 321 320 315
273 276 280 282 285 287 291 294 298 300 303 306 308 311 313 313 314 314 313 312 312 311 313 314 316 318 318 319 319 320 318 315 307
274 278 280 283 286 288 291 295 298 299 302 304 308 310 310 310 311 311 309 308 308 311 312 314 316 317 318 318 318 318 315 309 303
275 277 279 284 287 290 293 295 297 301 303 306 308 307 307 307 307 307 306 308 309 311 313 315 315 316 317 316 317 315 311 305 299
280 280 283 287 288 290 293 295 298 300 303 305 305 304 305 305 305 305 307 307 310 312 313 315 315 315 315 316 315 312 308 304 299
282 284 285 286 289 291 293 295 297 300 302 302 303 302 303 303 304 304 306 309 310 312 313 313 314 315 315 316 313 310 307 305 302
282 283 285 287 289 291 292 294 296 298 300 301 300 301 302 303 303 303 307 309 311 312 312 314 314 315 316 314 311 308 305 300 295
281 283 285 287 288 290 291 294 296 298 299 299 299 300 302 302 303 306 309 310 311 312 313 314 315 316 314 311 307 304 299 293 287
281 282 284 287 289 291 293 295 297 298 297 298 299 300 300 302 305 308 309 310 311 312 313 314 315 314 312 310 306 302 299 294 289
280 283 285 287 289 291 293 296 297 296 297 298 298 298 301 304 307 308 310 310 311 313 314 314 313 312 310 309 306 303 299 296 292
282 284 286 288 290 291 292 293 294 296 297 298 299 300 303 306 307 309 310 311 312 314 313 312 310 311 310 308 305 302 298 294 289
281 283 285 286 287 287 289 292 293 296 297 299 301 303 305 305 307 307 309 311 313 312 310 309 310 310 309 308 305 303 302 298 289
277 278 280 283 286 288 289 293 294 296 297 299 301 303 304 306 306 307 309 312 311 309 309 309 310 309 309 308 306 307 302 295 285
Height
10922 10923 10922 10922 10921 10921 10920 10919 10918 10917 10915 10913 10911 10908 10905 10902 10898 10895 10890 10886 10882 10877 10873 10868 10863 10857 10851 10844 10839 10833 10827 10821 10814
10918 10918 10917 10917 10916 10916 10916 10914 10913 10911 10910 10908 10905 10902 10899 10896 10892 10887 10883 10879 10874 10870 10865 10859 10853 10847 10841 10837 10831 10825 10820 10813 10806
10911 10912 10912 10912 10911 10910 10909 10909 10907 10905 10903 10901 10898 10895 10892 10888 10884 10879 10875 10870 10866 10861 10856 10851 10845 10839 10833 10829 10823 10817 10811 10805 10798
10906 10906 10907 10906 10906 10904 10903 10902 10901 10899 10897 10895 10891 10887 10884 10879 10875 10871 10865 10861 10857 10852 10847 10841 10836 10831 10826 10820 10813 10807 10801 10795 10788
10901 10902 10901 10900 10900 10898 10897 10895 10894 10892 10890 10887 10884 10880 10876 10871 10866 10862 10857 10851 10847 10842 10836 10832 10827 10822 10816 10810 10804 10797 10790 10784 10778
10896 10896 10895 10894 10893 10892 10890 10888 10886 10883 10881 10878 10876 10873 10868 10863 10858 10853 10848 10844 10837 10832 10828 10823 10817 10812 10806 10800 10793 10786 10779 10773 10767
10890 10890 10890 10888 10887 10885 10883 10881 10879 10876 10873 10870 10867 10863 10858 10853 10848 10843 10838 10833 10829 10823 10818 10813 10807 10801 10795 10789 10783 10776 10768 10762 10756
10882 10882 10882 10882 10880 10878 10876 10874 10871 10868 10864 10860 10857 10852 10848 10843 10838 10833 10827 10823 10818 10814 10808 10803 10797 10790 10784 10778 10771 10764 10756 10750 10744
10874 10874 10874 10873 10871 10869 10866 10864 10862 10860 10856 10852 10848 10844 10838 10832 10828 10823 10817 10811 10806 10801 10796 10790 10785 10778 10772 10764 10757 10750 10743 10736 10731
10866 10866 10865 10864 10862 10860 10858 10856 10853 10851 10848 10844 10840 10834 10828 10822 10817 10812 10807 10802 10795 10790 10784 10778 10770 10764 10757 10750 10742 10735 10727 10722 10718
10858 10857 10856 10856 10854 10852 10850 10848 10844 10841 10837 10834 10829 10823 10817 10811 10806 10799 10793 10788 10782 10776 10770 10763 10756 10748 10741 10734 10726 10717 10711 10706 10703
10850 10848 10848 10847 10844 10843 10841 10838 10834 10830 10826 10822 10818 10812 10807 10800 10794 10786 10780 10774 10767 10761 10754 10747 10738 10732 10725 10716 10707 10699 10693 10690 10688
10839 10839 10839 10838 10835 10833 10831 10828 10824 10819 10816 10811 10805 10800 10794 10789 10780 10772 10767 10760 10753 10745 10737 10730 10722 10713 10705 10695 10684 10677 10673 10670 10669
10829 10828 10828 10828 10825 10822 10819 10815 10813 10808 10804 10799 10792 10788 10782 10775 10767 10759 10754 10746 10737 10729 10719 10711 10702 10693 10681 10671 10663 10656 10652 10651 10650
10819 10817 10816 10816 10813 10809 10806 10804 10800 10795 10789 10785 10780 10774 10769 10761 10752 10744 10736 10729 10720 10710 10700 10690 10679 10669 10660 10650 10644 10638 10632 10627 10626
10808 10806 10804 10803 10800 10796 10791 10788 10785 10780 10775 10774 10767 10761 10755 10747 10740 10731 10721 10711 10702 10691 10681 10669 10658 10646 10637 10629 10621 10614 10610 10607 10604
10797 10794 10791 10789 10786 10781 10777 10774 10771 10766 10760 10757 10756 10753 10740 10730 10724 10715 10706 10694 10682 10671 10660 10648 10636 10626 10616 10606 10598 10593 10589 10587 10586
10783 10780 10777 10774 10773 10769 10765 10761 10756 10752 10745 10739 10735 10735 10730 10721 10708 10696 10684 10673 10662 10650 10639 10626 10614 10606 10596 10586 10580 10576 10573 10570 10566
10770 10766 10764 10761 10760 10757 10753 10748 10742 10737 10731 10724 10716 10711 10710 10705 10700 10687 10674 10659 10645 10631 10618 10607 10596 10586 10576 10567 10560 10556 10554 10550 10546
10759 10757 10754 10751 10748 10744 10739 10734 10728 10722 10716 10708 10702 10696 10690 10682 10678 10671 10657 10642 10626 10611 10599 10588 10579 10565 10557 10548 10541 10537 10532 10531 10527